Data supplied by UK-AIR on 8/11/2015
All Data GMT hour ending 
Status: R =Ratified P=Provisional,P*=As supplied
,,Brighton Preston Park,,,,,,,,,,,,,,,,,,,,,,,
Date,time,"Nitric oxide",status,unit,"Nitrogen dioxide",status,unit,"Nitrogen oxides as nitrogen dioxide",status,unit,"Ozone",status,unit,"Daily measured PM<sub>2.5</sub> (uncorrected)",status,unit
 
01-01-2013,01:00,0.79827,R,ugm-3,6.58346,R,ugm-3,7.80727,R,ugm-3,69.38384,R,ugm-3,,,
01-01-2013,02:00,0.89806,R,ugm-3,6.12701,R,ugm-3,7.50408,R,ugm-3,67.58771,R,ugm-3,,,
01-01-2013,03:00,0.86064,R,ugm-3,4.53549,R,ugm-3,5.85545,R,ugm-3,66.50670,R,ugm-3,,,
01-01-2013,04:00,0.41161,R,ugm-3,3.17714,R,ugm-3,3.80889,R,ugm-3,68.95144,R,ugm-3,,,
01-01-2013,05:00,0.56129,R,ugm-3,2.20989,R,ugm-3,3.06985,R,ugm-3,69.94929,R,ugm-3,,,
01-01-2013,06:00,0.74838,R,ugm-3,2.49103,R,ugm-3,3.63834,R,ugm-3,68.80176,R,ugm-3,,,
01-01-2013,07:00,0.71096,R,ugm-3,3.57112,R,ugm-3,4.66162,R,ugm-3,65.45896,R,ugm-3,,,
01-01-2013,08:00,0.63612,R,ugm-3,5.73224,R,ugm-3,6.70819,R,ugm-3,64.36133,R,ugm-3,,,
01-01-2013,09:00,0.93548,R,ugm-3,6.41118,R,ugm-3,7.84517,R,ugm-3,65.75832,R,ugm-3,,,
01-01-2013,10:00,1.45934,R,ugm-3,6.91512,R,ugm-3,9.15270,R,ugm-3,67.75402,R,ugm-3,,,
01-01-2013,11:00,1.94579,R,ugm-3,4.74778,R,ugm-3,7.73147,R,ugm-3,68.55230,R,ugm-3,,,
01-01-2013,12:00,2.54449,R,ugm-3,5.42194,R,ugm-3,9.32325,R,ugm-3,72.39402,R,ugm-3,,,
01-01-2013,13:00,2.17030,R,ugm-3,4.85871,R,ugm-3,8.18627,R,ugm-3,76.13596,R,ugm-3,,,
01-01-2013,14:00,2.02063,R,ugm-3,4.40592,R,ugm-3,7.50408,R,ugm-3,74.88864,R,ugm-3,,,
01-01-2013,15:00,2.09546,R,ugm-3,7.02031,R,ugm-3,10.23283,R,ugm-3,68.00348,R,ugm-3,,,
01-01-2013,16:00,1.72127,R,ugm-3,13.10780,R,ugm-3,15.74719,R,ugm-3,59.57165,R,ugm-3,,,
01-01-2013,17:00,1.57160,R,ugm-3,21.41044,R,ugm-3,23.81976,R,ugm-3,47.54755,R,ugm-3,,,
01-01-2013,18:00,1.72127,R,ugm-3,28.00235,R,ugm-3,30.64165,R,ugm-3,42.75787,R,ugm-3,,,
01-01-2013,19:00,1.30967,R,ugm-3,18.17305,R,ugm-3,20.18142,R,ugm-3,52.58670,R,ugm-3,,,
01-01-2013,20:00,2.35740,R,ugm-3,25.94689,R,ugm-3,29.56151,R,ugm-3,39.36518,R,ugm-3,,,
01-01-2013,21:00,2.43224,R,ugm-3,20.54503,R,ugm-3,24.27455,R,ugm-3,48.84476,R,ugm-3,,,
01-01-2013,22:00,1.08515,R,ugm-3,8.73965,R,ugm-3,10.40338,R,ugm-3,60.71917,R,ugm-3,,,
01-01-2013,23:00,1.01031,R,ugm-3,5.95505,R,ugm-3,7.50408,R,ugm-3,61.26799,R,ugm-3,,,
01-01-2013,24:00,0.89806,R,ugm-3,5.33109,R,ugm-3,6.70819,R,ugm-3,58.32433,R,ugm-3,,,
02-01-2013,01:00,0.79869,R,ugm-3,5.83058,R,ugm-3,7.05521,R,ugm-3,55.74655,R,ugm-3,,,
02-01-2013,02:00,0.84900,R,ugm-3,4.00860,R,ugm-3,5.31038,R,ugm-3,56.01265,R,ugm-3,,,
02-01-2013,03:00,0.82384,R,ugm-3,3.40234,R,ugm-3,4.66554,R,ugm-3,56.02928,R,ugm-3,,,
02-01-2013,04:00,0.56129,R,ugm-3,3.52043,R,ugm-3,4.38106,R,ugm-3,56.37853,R,ugm-3,,,
02-01-2013,05:00,0.78611,R,ugm-3,3.97226,R,ugm-3,5.17762,R,ugm-3,54.63229,R,ugm-3,,,
02-01-2013,06:00,0.71096,R,ugm-3,5.45302,R,ugm-3,6.54314,R,ugm-3,50.04218,R,ugm-3,,,
02-01-2013,07:00,0.82384,R,ugm-3,11.76618,R,ugm-3,13.02938,R,ugm-3,38.66669,R,ugm-3,,,
02-01-2013,08:00,2.35927,R,ugm-3,24.94474,R,ugm-3,28.56223,R,ugm-3,25.04604,R,ugm-3,,,
02-01-2013,09:00,16.14100,R,ugm-3,43.07189,R,ugm-3,67.82108,R,ugm-3,3.69205,R,ugm-3,,,
02-01-2013,10:00,24.30520,R,ugm-3,43.41232,R,ugm-3,80.67977,R,ugm-3,6.28646,R,ugm-3,,,
02-01-2013,11:00,17.30192,R,ugm-3,36.39870,R,ugm-3,62.92794,R,ugm-3,17.56216,R,ugm-3,,,
02-01-2013,12:00,6.62878,R,ugm-3,28.98107,R,ugm-3,39.14505,R,ugm-3,30.13507,R,ugm-3,,,
02-01-2013,13:00,4.15663,R,ugm-3,26.34230,R,ugm-3,32.71570,R,ugm-3,39.91400,R,ugm-3,,,
02-01-2013,14:00,2.14702,R,ugm-3,17.57014,R,ugm-3,20.86219,R,ugm-3,58.07487,R,ugm-3,,,
02-01-2013,15:00,1.12351,R,ugm-3,11.47739,R,ugm-3,13.20008,R,ugm-3,72.74327,R,ugm-3,,,
02-01-2013,16:00,0.82384,R,ugm-3,9.37651,R,ugm-3,10.63972,R,ugm-3,74.53940,R,ugm-3,,,
02-01-2013,17:00,0.82384,R,ugm-3,11.70928,R,ugm-3,12.97249,R,ugm-3,71.99488,R,ugm-3,,,
02-01-2013,18:00,0.74900,R,ugm-3,14.61198,R,ugm-3,15.76043,R,ugm-3,69.60004,R,ugm-3,,,
02-01-2013,19:00,0.86095,R,ugm-3,13.35929,R,ugm-3,14.67939,R,ugm-3,63.61294,R,ugm-3,,,
02-01-2013,20:00,0.82384,R,ugm-3,14.38343,R,ugm-3,15.64664,R,ugm-3,53.03573,R,ugm-3,,,
02-01-2013,21:00,0.82384,R,ugm-3,15.12309,R,ugm-3,16.38630,R,ugm-3,50.64089,R,ugm-3,,,
02-01-2013,22:00,1.01125,R,ugm-3,17.85128,R,ugm-3,19.40183,R,ugm-3,39.56475,R,ugm-3,,,
02-01-2013,23:00,0.97383,R,ugm-3,17.85175,R,ugm-3,19.34494,R,ugm-3,39.81422,R,ugm-3,,,
02-01-2013,24:00,0.86157,R,ugm-3,16.26008,R,ugm-3,17.58113,R,ugm-3,36.57120,R,ugm-3,,,
03-01-2013,01:00,1.24855,R,ugm-3,19.64839,R,ugm-3,21.56306,R,ugm-3,24.54711,R,ugm-3,,,
03-01-2013,02:00,0.89889,R,ugm-3,3.10144,R,ugm-3,4.47965,R,ugm-3,59.53838,R,ugm-3,,,
03-01-2013,03:00,0.56129,R,ugm-3,2.27062,R,ugm-3,3.13196,R,ugm-3,54.98154,R,ugm-3,,,
03-01-2013,04:00,0.56129,R,ugm-3,2.27109,R,ugm-3,3.13196,R,ugm-3,53.73422,R,ugm-3,,,
03-01-2013,05:00,0.63612,R,ugm-3,4.14965,R,ugm-3,5.12502,R,ugm-3,48.09637,R,ugm-3,,,
03-01-2013,06:00,0.71127,R,ugm-3,5.28711,R,ugm-3,6.37781,R,ugm-3,51.04003,R,ugm-3,,,
03-01-2013,07:00,0.78611,R,ugm-3,7.73511,R,ugm-3,8.94032,R,ugm-3,53.43487,R,ugm-3,,,
03-01-2013,08:00,1.01156,R,ugm-3,13.36838,R,ugm-3,14.91951,R,ugm-3,47.69723,R,ugm-3,,,
03-01-2013,09:00,1.79767,R,ugm-3,19.05328,R,ugm-3,21.80982,R,ugm-3,41.11142,R,ugm-3,,,
03-01-2013,10:00,2.32185,R,ugm-3,18.53404,R,ugm-3,22.09454,R,ugm-3,37.12002,R,ugm-3,,,
03-01-2013,11:00,3.96953,R,ugm-3,19.48168,R,ugm-3,25.56817,R,ugm-3,37.36948,R,ugm-3,,,
03-01-2013,12:00,4.68112,R,ugm-3,17.02412,R,ugm-3,24.20149,R,ugm-3,38.56690,R,ugm-3,,,
03-01-2013,13:00,6.06718,R,ugm-3,21.27608,R,ugm-3,30.57930,R,ugm-3,34.42583,R,ugm-3,,,
03-01-2013,14:00,6.66620,R,ugm-3,22.92083,R,ugm-3,33.14181,R,ugm-3,32.33034,R,ugm-3,,,
03-01-2013,15:00,5.28045,R,ugm-3,25.21583,R,ugm-3,33.31264,R,ugm-3,29.78582,R,ugm-3,,,
03-01-2013,16:00,3.55761,R,ugm-3,27.51609,R,ugm-3,32.97097,R,ugm-3,27.74023,R,ugm-3,,,
03-01-2013,17:00,4.79369,R,ugm-3,38.31933,R,ugm-3,45.66964,R,ugm-3,12.37334,R,ugm-3,,,
03-01-2013,18:00,2.58409,R,ugm-3,28.89453,R,ugm-3,32.85709,R,ugm-3,27.24131,R,ugm-3,,,
03-01-2013,19:00,2.05960,R,ugm-3,29.01597,R,ugm-3,32.17375,R,ugm-3,19.70754,R,ugm-3,,,
03-01-2013,20:00,3.03343,R,ugm-3,35.77953,R,ugm-3,40.43073,R,ugm-3,10.47743,R,ugm-3,,,
03-01-2013,21:00,1.79767,R,ugm-3,27.48119,R,ugm-3,30.23763,R,ugm-3,23.69894,R,ugm-3,,,
03-01-2013,22:00,0.86126,R,ugm-3,15.99089,R,ugm-3,17.31119,R,ugm-3,39.51486,R,ugm-3,,,
03-01-2013,23:00,0.89899,R,ugm-3,9.78292,R,ugm-3,11.16116,R,ugm-3,44.65379,R,ugm-3,,,
03-01-2013,24:00,0.74900,R,ugm-3,11.09441,R,ugm-3,12.24311,R,ugm-3,44.95314,R,ugm-3,,,
04-01-2013,01:00,0.84941,R,ugm-3,9.78308,R,ugm-3,11.08523,R,ugm-3,43.04060,R,ugm-3,,,
04-01-2013,02:00,0.84941,R,ugm-3,3.25380,R,ugm-3,4.55558,R,ugm-3,58.93967,R,ugm-3,,,
04-01-2013,03:00,0.71221,R,ugm-3,1.75520,R,ugm-3,2.84723,R,ugm-3,63.51315,R,ugm-3,,,
04-01-2013,04:00,0.56253,R,ugm-3,1.64284,R,ugm-3,2.50557,R,ugm-3,64.41122,R,ugm-3,,,
04-01-2013,05:00,0.67479,R,ugm-3,1.12933,R,ugm-3,2.16390,R,ugm-3,71.99488,R,ugm-3,,,
04-01-2013,06:00,0.71221,R,ugm-3,1.58451,R,ugm-3,2.67640,R,ugm-3,73.99058,R,ugm-3,,,
04-01-2013,07:00,1.08671,R,ugm-3,5.33779,R,ugm-3,7.00420,R,ugm-3,68.05337,R,ugm-3,,,
04-01-2013,08:00,0.97445,R,ugm-3,10.46377,R,ugm-3,11.95838,R,ugm-3,65.55875,R,ugm-3,,,
04-01-2013,09:00,1.49926,R,ugm-3,15.41093,R,ugm-3,17.70980,R,ugm-3,60.36993,R,ugm-3,,,
04-01-2013,10:00,2.02406,R,ugm-3,13.29666,R,ugm-3,16.40007,R,ugm-3,62.61509,R,ugm-3,,,
04-01-2013,11:00,1.87407,R,ugm-3,9.19865,R,ugm-3,12.07227,R,ugm-3,69.15101,R,ugm-3,,,
04-01-2013,12:00,2.17404,R,ugm-3,7.60028,R,ugm-3,10.93338,R,ugm-3,70.49810,R,ugm-3,,,
04-01-2013,13:00,1.98633,R,ugm-3,8.45755,R,ugm-3,11.50283,R,ugm-3,67.90369,R,ugm-3,,,
04-01-2013,14:00,1.83665,R,ugm-3,9.42671,R,ugm-3,12.24311,R,ugm-3,62.81466,R,ugm-3,,,
04-01-2013,15:00,1.83665,R,ugm-3,10.22423,R,ugm-3,13.04033,R,ugm-3,61.01853,R,ugm-3,,,
04-01-2013,16:00,1.64893,R,ugm-3,12.96053,R,ugm-3,15.48896,R,ugm-3,53.48476,R,ugm-3,,,
04-01-2013,17:00,1.31185,R,ugm-3,15.86945,R,ugm-3,17.88063,R,ugm-3,51.63874,R,ugm-3,,,
04-01-2013,18:00,1.61182,R,ugm-3,16.20605,R,ugm-3,18.67786,R,ugm-3,50.64089,R,ugm-3,,,
04-01-2013,19:00,1.01156,R,ugm-3,14.90603,R,ugm-3,16.45702,R,ugm-3,49.64304,R,ugm-3,,,
04-01-2013,20:00,1.12475,R,ugm-3,11.54337,R,ugm-3,13.26811,R,ugm-3,52.78627,R,ugm-3,,,
04-01-2013,21:00,0.78705,R,ugm-3,10.01098,R,ugm-3,11.21810,R,ugm-3,51.48906,R,ugm-3,,,
04-01-2013,22:00,0.74963,R,ugm-3,8.07553,R,ugm-3,9.22504,R,ugm-3,50.99014,R,ugm-3,,,
04-01-2013,23:00,0.78705,R,ugm-3,4.88644,R,ugm-3,6.09308,R,ugm-3,53.93379,R,ugm-3,,,
04-01-2013,24:00,0.63737,R,ugm-3,4.26105,R,ugm-3,5.23891,R,ugm-3,52.33723,R,ugm-3,,,
05-01-2013,01:00,0.75046,R,ugm-3,4.62443,R,ugm-3,5.77524,R,ugm-3,50.49121,R,ugm-3,,,
05-01-2013,02:00,0.95044,R,ugm-3,4.92533,R,ugm-3,6.38316,R,ugm-3,50.95687,R,ugm-3,,,
05-01-2013,03:00,0.75056,R,ugm-3,2.89553,R,ugm-3,4.04647,R,ugm-3,58.52390,R,ugm-3,,,
05-01-2013,04:00,0.75056,R,ugm-3,1.98374,R,ugm-3,3.13459,R,ugm-3,61.46756,R,ugm-3,,,
05-01-2013,05:00,0.78798,R,ugm-3,3.57924,R,ugm-3,4.78737,R,ugm-3,55.92949,R,ugm-3,,,
05-01-2013,06:00,0.67541,R,ugm-3,5.29045,R,ugm-3,6.32617,R,ugm-3,53.28519,R,ugm-3,,,
05-01-2013,07:00,0.75056,R,ugm-3,8.08223,R,ugm-3,9.23279,R,ugm-3,46.40003,R,ugm-3,,,
05-01-2013,08:00,0.78798,R,ugm-3,16.11759,R,ugm-3,17.32572,R,ugm-3,33.42798,R,ugm-3,,,
05-01-2013,09:00,1.27536,R,ugm-3,19.70162,R,ugm-3,21.65715,R,ugm-3,33.47787,R,ugm-3,,,
05-01-2013,10:00,1.42566,R,ugm-3,16.05161,R,ugm-3,18.23760,R,ugm-3,44.65379,R,ugm-3,,,
05-01-2013,11:00,1.42535,R,ugm-3,12.68944,R,ugm-3,14.87504,R,ugm-3,54.98154,R,ugm-3,,,
05-01-2013,12:00,1.61276,R,ugm-3,10.29355,R,ugm-3,12.76632,R,ugm-3,57.97509,R,ugm-3,,,
05-01-2013,13:00,2.10045,R,ugm-3,11.99663,R,ugm-3,15.21700,R,ugm-3,54.18326,R,ugm-3,,,
05-01-2013,14:00,2.02562,R,ugm-3,13.30765,R,ugm-3,16.41384,R,ugm-3,48.99444,R,ugm-3,,,
05-01-2013,15:00,2.02562,R,ugm-3,18.26677,R,ugm-3,21.37219,R,ugm-3,42.85766,R,ugm-3,,,
05-01-2013,16:00,1.83790,R,ugm-3,22.54407,R,ugm-3,25.36166,R,ugm-3,38.86626,R,ugm-3,,,
05-01-2013,17:00,1.31278,R,ugm-3,18.56177,R,ugm-3,20.57429,R,ugm-3,48.49551,R,ugm-3,,,
05-01-2013,18:00,1.16280,R,ugm-3,16.68226,R,ugm-3,18.46557,R,ugm-3,50.34153,R,ugm-3,,,
05-01-2013,19:00,1.20053,R,ugm-3,14.17402,R,ugm-3,16.01489,R,ugm-3,46.54970,R,ugm-3,,,
05-01-2013,20:00,1.38793,R,ugm-3,21.12500,R,ugm-3,23.25294,R,ugm-3,36.72088,R,ugm-3,,,
05-01-2013,21:00,0.75025,R,ugm-3,12.92707,R,ugm-3,14.07715,R,ugm-3,44.15486,R,ugm-3,,,
05-01-2013,22:00,0.67541,R,ugm-3,14.80849,R,ugm-3,15.84392,R,ugm-3,38.96604,R,ugm-3,,,
05-01-2013,23:00,0.97539,R,ugm-3,18.90745,R,ugm-3,20.40332,R,ugm-3,28.28905,R,ugm-3,,,
05-01-2013,24:00,0.90055,R,ugm-3,20.21943,R,ugm-3,21.60016,R,ugm-3,26.34324,R,ugm-3,,,
06-01-2013,01:00,1.10053,R,ugm-3,19.45523,R,ugm-3,21.14294,R,ugm-3,23.21664,R,ugm-3,,,
06-01-2013,02:00,1.50050,R,ugm-3,16.18039,R,ugm-3,18.48106,R,ugm-3,28.67156,R,ugm-3,,,
06-01-2013,03:00,0.82540,R,ugm-3,10.54170,R,ugm-3,11.80735,R,ugm-3,44.55400,R,ugm-3,,,
06-01-2013,04:00,1.08765,R,ugm-3,6.37484,R,ugm-3,8.04268,R,ugm-3,49.69293,R,ugm-3,,,
06-01-2013,05:00,0.97539,R,ugm-3,6.26200,R,ugm-3,7.75748,R,ugm-3,50.79057,R,ugm-3,,,
06-01-2013,06:00,1.01312,R,ugm-3,5.40520,R,ugm-3,6.95892,R,ugm-3,50.09207,R,ugm-3,,,
06-01-2013,07:00,0.90055,R,ugm-3,9.62800,R,ugm-3,11.00878,R,ugm-3,44.65379,R,ugm-3,,,
06-01-2013,08:00,0.75056,R,ugm-3,8.54601,R,ugm-3,9.69685,R,ugm-3,49.04433,R,ugm-3,,,
06-01-2013,09:00,1.53792,R,ugm-3,11.90197,R,ugm-3,14.26008,R,ugm-3,45.20261,R,ugm-3,,,
06-01-2013,10:00,2.70103,R,ugm-3,15.70880,R,ugm-3,19.85003,R,ugm-3,38.31744,R,ugm-3,,,
06-01-2013,11:00,3.52581,R,ugm-3,13.87328,R,ugm-3,19.27963,R,ugm-3,37.46927,R,ugm-3,,,
06-01-2013,12:00,4.87632,R,ugm-3,7.01123,R,ugm-3,14.48824,R,ugm-3,39.11572,R,ugm-3,,,
06-01-2013,13:00,6.07685,R,ugm-3,11.04564,R,ugm-3,20.36339,R,ugm-3,37.81852,R,ugm-3,,,
06-01-2013,14:00,6.56454,R,ugm-3,20.22325,R,ugm-3,30.28841,R,ugm-3,32.57980,R,ugm-3,,,
06-01-2013,15:00,17.25577,R,ugm-3,33.03461,R,ugm-3,59.49305,R,ugm-3,13.02194,R,ugm-3,,,
06-01-2013,16:00,6.45228,R,ugm-3,33.68582,R,ugm-3,43.57880,R,ugm-3,12.17377,R,ugm-3,,,
06-01-2013,17:00,3.41355,R,ugm-3,30.87253,R,ugm-3,36.10652,R,ugm-3,18.85937,R,ugm-3,,,
06-01-2013,18:00,1.68822,R,ugm-3,19.14317,R,ugm-3,21.73236,R,ugm-3,35.12432,R,ugm-3,,,
06-01-2013,19:00,0.82540,R,ugm-3,10.02819,R,ugm-3,11.29398,R,ugm-3,46.84906,R,ugm-3,,,
06-01-2013,20:00,1.01281,R,ugm-3,7.91584,R,ugm-3,9.46869,R,ugm-3,53.28519,R,ugm-3,,,
06-01-2013,21:00,0.75025,R,ugm-3,5.80874,R,ugm-3,6.95892,R,ugm-3,54.33293,R,ugm-3,,,
06-01-2013,22:00,0.86282,R,ugm-3,6.09275,R,ugm-3,7.41524,R,ugm-3,54.78197,R,ugm-3,,,
06-01-2013,23:00,1.12538,R,ugm-3,6.83097,R,ugm-3,8.55605,R,ugm-3,53.88390,R,ugm-3,,,
06-01-2013,24:00,1.57565,R,ugm-3,8.42169,R,ugm-3,10.83766,R,ugm-3,46.44992,R,ugm-3,,,
07-01-2013,01:00,1.45186,R,ugm-3,9.72379,R,ugm-3,11.95045,R,ugm-3,41.84318,R,ugm-3,,,
07-01-2013,02:00,1.10137,R,ugm-3,5.84715,R,ugm-3,7.53563,R,ugm-3,42.84103,R,ugm-3,,,
07-01-2013,03:00,0.71346,R,ugm-3,3.13028,R,ugm-3,4.22452,R,ugm-3,47.69723,R,ugm-3,,,
07-01-2013,04:00,0.63831,R,ugm-3,2.50394,R,ugm-3,3.48238,R,ugm-3,49.24390,R,ugm-3,,,
07-01-2013,05:00,0.90055,R,ugm-3,2.04446,R,ugm-3,3.42529,R,ugm-3,54.18326,R,ugm-3,,,
07-01-2013,06:00,0.93828,R,ugm-3,2.84293,R,ugm-3,4.28161,R,ugm-3,48.14626,R,ugm-3,,,
07-01-2013,07:00,0.82571,R,ugm-3,5.81257,R,ugm-3,7.07893,R,ugm-3,37.46927,R,ugm-3,,,
07-01-2013,08:00,1.50175,R,ugm-3,10.88452,R,ugm-3,13.18736,R,ugm-3,29.13722,R,ugm-3,,,
07-01-2013,09:00,3.45409,R,ugm-3,17.13887,R,ugm-3,22.43563,R,ugm-3,16.61420,R,ugm-3,,,
07-01-2013,10:00,3.79179,R,ugm-3,15.99328,R,ugm-3,21.80766,R,ugm-3,19.90711,R,ugm-3,,,
07-01-2013,11:00,3.41636,R,ugm-3,13.48647,R,ugm-3,18.72491,R,ugm-3,22.70109,R,ugm-3,,,
07-01-2013,12:00,3.86694,R,ugm-3,11.59692,R,ugm-3,17.52605,R,ugm-3,23.99829,R,ugm-3,,,
07-01-2013,13:00,3.15349,R,ugm-3,9.83694,R,ugm-3,14.67165,R,ugm-3,28.78797,R,ugm-3,,,
07-01-2013,14:00,2.81578,R,ugm-3,8.98397,R,ugm-3,13.30153,R,ugm-3,30.68389,R,ugm-3,,,
07-01-2013,15:00,2.47807,R,ugm-3,9.72984,R,ugm-3,13.52989,R,ugm-3,29.13722,R,ugm-3,,,
07-01-2013,16:00,2.06522,R,ugm-3,11.90531,R,ugm-3,15.07127,R,ugm-3,28.33894,R,ugm-3,,,
07-01-2013,17:00,2.02749,R,ugm-3,16.24430,R,ugm-3,19.35287,R,ugm-3,26.54281,R,ugm-3,,,
07-01-2013,18:00,1.83977,R,ugm-3,13.96316,R,ugm-3,16.78391,R,ugm-3,27.93980,R,ugm-3,,,
07-01-2013,19:00,1.83977,R,ugm-3,17.95885,R,ugm-3,20.78008,R,ugm-3,19.70754,R,ugm-3,,,
07-01-2013,20:00,1.61432,R,ugm-3,18.41881,R,ugm-3,20.89425,R,ugm-3,22.15227,R,ugm-3,,,
07-01-2013,21:00,1.08858,R,ugm-3,11.28997,R,ugm-3,12.95900,R,ugm-3,35.67314,R,ugm-3,,,
07-01-2013,22:00,0.90117,R,ugm-3,12.20558,R,ugm-3,13.58697,R,ugm-3,44.85336,R,ugm-3,,,
07-01-2013,23:00,0.63831,R,ugm-3,7.81304,R,ugm-3,8.79157,R,ugm-3,51.28949,R,ugm-3,,,
07-01-2013,24:00,0.78829,R,ugm-3,4.95720,R,ugm-3,6.16552,R,ugm-3,53.58455,R,ugm-3,,,
08-01-2013,01:00,0.60120,R,ugm-3,4.71049,R,ugm-3,5.63270,R,ugm-3,51.55558,R,ugm-3,,,
08-01-2013,02:00,0.75129,R,ugm-3,2.73041,R,ugm-3,3.88199,R,ugm-3,57.01050,R,ugm-3,,,
08-01-2013,03:00,0.60120,R,ugm-3,2.67415,R,ugm-3,3.59655,R,ugm-3,58.17466,R,ugm-3,,,
08-01-2013,04:00,0.78923,R,ugm-3,4.61295,R,ugm-3,5.82299,R,ugm-3,52.78627,R,ugm-3,,,
08-01-2013,05:00,0.75119,R,ugm-3,3.35835,R,ugm-3,4.50996,R,ugm-3,54.48261,R,ugm-3,,,
08-01-2013,06:00,0.75181,R,ugm-3,6.78316,R,ugm-3,7.93525,R,ugm-3,45.70153,R,ugm-3,,,
08-01-2013,07:00,0.82665,R,ugm-3,8.66602,R,ugm-3,9.93333,R,ugm-3,42.95744,R,ugm-3,,,
08-01-2013,08:00,1.12756,R,ugm-3,12.60051,R,ugm-3,14.32912,R,ugm-3,39.76432,R,ugm-3,,,
08-01-2013,09:00,2.32965,R,ugm-3,18.97774,R,ugm-3,22.54981,R,ugm-3,30.13507,R,ugm-3,,,
08-01-2013,10:00,4.62156,R,ugm-3,17.46160,R,ugm-3,24.54789,R,ugm-3,27.29120,R,ugm-3,,,
08-01-2013,11:00,5.82458,R,ugm-3,12.87686,R,ugm-3,21.80766,R,ugm-3,28.48862,R,ugm-3,,,
08-01-2013,12:00,5.22276,R,ugm-3,11.40185,R,ugm-3,19.40996,R,ugm-3,29.03744,R,ugm-3,,,
08-01-2013,13:00,7.10181,R,ugm-3,13.25936,R,ugm-3,24.14828,R,ugm-3,27.24131,R,ugm-3,,,
08-01-2013,14:00,3.68234,R,ugm-3,12.27921,R,ugm-3,17.92567,R,ugm-3,31.83142,R,ugm-3,,,
08-01-2013,15:00,2.78086,R,ugm-3,14.00380,R,ugm-3,18.26820,R,ugm-3,31.08303,R,ugm-3,,,
08-01-2013,16:00,1.99131,R,ugm-3,13.10254,R,ugm-3,16.15594,R,ugm-3,34.07658,R,ugm-3,,,
08-01-2013,17:00,1.46558,R,ugm-3,14.59333,R,ugm-3,16.84100,R,ugm-3,42.60820,R,ugm-3,,,
08-01-2013,18:00,1.39043,R,ugm-3,16.30741,R,ugm-3,18.43946,R,ugm-3,39.46497,R,ugm-3,,,
08-01-2013,19:00,1.35239,R,ugm-3,15.79486,R,ugm-3,17.86858,R,ugm-3,34.82497,R,ugm-3,,,
08-01-2013,20:00,1.46589,R,ugm-3,15.16421,R,ugm-3,17.41188,R,ugm-3,32.87916,R,ugm-3,,,
08-01-2013,21:00,1.50300,R,ugm-3,14.07983,R,ugm-3,16.38429,R,ugm-3,28.83787,R,ugm-3,,,
08-01-2013,22:00,1.84133,R,ugm-3,18.81278,R,ugm-3,21.63640,R,ugm-3,20.20646,R,ugm-3,,,
08-01-2013,23:00,1.20240,R,ugm-3,12.82809,R,ugm-3,14.67165,R,ugm-3,30.68389,R,ugm-3,,,
08-01-2013,24:00,0.97726,R,ugm-3,8.43460,R,ugm-3,9.93333,R,ugm-3,38.06798,R,ugm-3,,,
09-01-2013,01:00,0.90180,R,ugm-3,6.69184,R,ugm-3,8.07521,R,ugm-3,40.18009,R,ugm-3,,,
09-01-2013,02:00,0.90180,R,ugm-3,4.63590,R,ugm-3,6.01832,R,ugm-3,41.64361,R,ugm-3,,,
09-01-2013,03:00,0.67604,R,ugm-3,4.33420,R,ugm-3,5.37078,R,ugm-3,39.46497,R,ugm-3,,,
09-01-2013,04:00,0.56378,R,ugm-3,6.27778,R,ugm-3,7.14199,R,ugm-3,35.22411,R,ugm-3,,,
09-01-2013,05:00,0.67635,R,ugm-3,8.73295,R,ugm-3,9.77025,R,ugm-3,32.72948,R,ugm-3,,,
09-01-2013,06:00,0.90180,R,ugm-3,7.81591,R,ugm-3,9.19889,R,ugm-3,34.32604,R,ugm-3,,,
09-01-2013,07:00,1.12694,R,ugm-3,15.24071,R,ugm-3,16.96937,R,ugm-3,26.84217,R,ugm-3,,,
09-01-2013,08:00,6.38774,R,ugm-3,29.68726,R,ugm-3,39.48093,R,ugm-3,5.33850,R,ugm-3,,,
09-01-2013,09:00,13.97818,R,ugm-3,26.84720,R,ugm-3,48.27987,R,ugm-3,8.43183,R,ugm-3,,,
09-01-2013,10:00,7.77816,R,ugm-3,21.21249,R,ugm-3,33.13884,R,ugm-3,6.03699,R,ugm-3,,,
09-01-2013,11:00,9.01798,R,ugm-3,25.59642,R,ugm-3,39.42380,R,ugm-3,7.78323,R,ugm-3,,,
09-01-2013,12:00,6.57577,R,ugm-3,24.25576,R,ugm-3,34.33870,R,ugm-3,15.76603,R,ugm-3,,,
09-01-2013,13:00,3.83264,R,ugm-3,19.26318,R,ugm-3,25.13981,R,ugm-3,24.74668,R,ugm-3,,,
09-01-2013,14:00,2.59283,R,ugm-3,18.59285,R,ugm-3,22.56870,R,ugm-3,27.69034,R,ugm-3,,,
09-01-2013,15:00,2.29160,R,ugm-3,18.02627,R,ugm-3,21.54025,R,ugm-3,32.67959,R,ugm-3,,,
09-01-2013,16:00,2.29191,R,ugm-3,22.48287,R,ugm-3,25.99685,R,ugm-3,22.60130,R,ugm-3,,,
09-01-2013,17:00,1.91648,R,ugm-3,23.57300,R,ugm-3,26.51108,R,ugm-3,24.89636,R,ugm-3,,,
09-01-2013,18:00,1.42785,R,ugm-3,23.63611,R,ugm-3,25.82544,R,ugm-3,27.74023,R,ugm-3,,,
09-01-2013,19:00,1.54073,R,ugm-3,21.74943,R,ugm-3,24.11137,R,ugm-3,31.18281,R,ugm-3,,,
09-01-2013,20:00,1.39012,R,ugm-3,26.03630,R,ugm-3,28.16802,R,ugm-3,25.34539,R,ugm-3,,,
09-01-2013,21:00,2.81827,R,ugm-3,33.73124,R,ugm-3,38.05253,R,ugm-3,13.32130,R,ugm-3,,,
09-01-2013,22:00,7.43983,R,ugm-3,39.32865,R,ugm-3,50.73671,R,ugm-3,4.34065,R,ugm-3,,,
09-01-2013,23:00,9.46919,R,ugm-3,37.93109,R,ugm-3,52.45079,R,ugm-3,2.89377,R,ugm-3,,,
09-01-2013,24:00,10.52129,R,ugm-3,37.68916,R,ugm-3,53.82205,R,ugm-3,3.34280,R,ugm-3,,,
10-01-2013,01:00,8.42343,R,ugm-3,35.04274,R,ugm-3,47.95811,R,ugm-3,3.52574,R,ugm-3,,,
10-01-2013,02:00,3.05880,R,ugm-3,28.09526,R,ugm-3,32.78535,R,ugm-3,9.18022,R,ugm-3,,,
10-01-2013,03:00,1.57939,R,ugm-3,24.39776,R,ugm-3,26.81918,R,ugm-3,11.72474,R,ugm-3,,,
10-01-2013,04:00,2.03092,R,ugm-3,23.24787,R,ugm-3,26.36171,R,ugm-3,12.02409,R,ugm-3,,,
10-01-2013,05:00,1.35363,R,ugm-3,18.51061,R,ugm-3,20.58615,R,ugm-3,24.34754,R,ugm-3,,,
10-01-2013,06:00,1.05303,R,ugm-3,14.73964,R,ugm-3,16.35455,R,ugm-3,36.47142,R,ugm-3,,,
10-01-2013,07:00,1.12818,R,ugm-3,22.68751,R,ugm-3,24.41746,R,ugm-3,24.64690,R,ugm-3,,,
10-01-2013,08:00,9.06319,R,ugm-3,37.51178,R,ugm-3,51.40819,R,ugm-3,9.87872,R,ugm-3,,,
10-01-2013,09:00,22.07472,R,ugm-3,45.06615,R,ugm-3,78.91358,R,ugm-3,5.13893,R,ugm-3,,,
10-01-2013,10:00,16.58410,R,ugm-3,35.18618,R,ugm-3,60.61478,R,ugm-3,18.31055,R,ugm-3,,,
10-01-2013,11:00,4.36243,R,ugm-3,15.15513,R,ugm-3,21.84419,R,ugm-3,45.80132,R,ugm-3,,,
10-01-2013,12:00,2.06865,R,ugm-3,10.09465,R,ugm-3,13.26663,R,ugm-3,47.14841,R,ugm-3,,,
10-01-2013,13:00,4.77591,R,ugm-3,17.26605,R,ugm-3,24.58901,R,ugm-3,31.28260,R,ugm-3,,,
10-01-2013,14:00,4.77591,R,ugm-3,17.32343,R,ugm-3,24.64620,R,ugm-3,35.62325,R,ugm-3,,,
10-01-2013,15:00,4.51273,R,ugm-3,17.95598,R,ugm-3,24.87493,R,ugm-3,31.38238,R,ugm-3,,,
10-01-2013,16:00,3.53485,R,ugm-3,21.28517,R,ugm-3,26.70481,R,ugm-3,28.53851,R,ugm-3,,,
10-01-2013,17:00,3.08364,R,ugm-3,28.55219,R,ugm-3,33.28094,R,ugm-3,20.80517,R,ugm-3,,,
10-01-2013,18:00,3.00849,R,ugm-3,34.21463,R,ugm-3,38.82777,R,ugm-3,17.06324,R,ugm-3,,,
10-01-2013,19:00,3.98637,R,ugm-3,36.77546,R,ugm-3,42.88781,R,ugm-3,13.92001,R,ugm-3,,,
10-01-2013,20:00,2.67016,R,ugm-3,32.73244,R,ugm-3,36.82634,R,ugm-3,15.91571,R,ugm-3,,,
10-01-2013,21:00,3.23425,R,ugm-3,34.26913,R,ugm-3,39.22805,R,ugm-3,11.37549,R,ugm-3,,,
10-01-2013,22:00,3.19683,R,ugm-3,33.35400,R,ugm-3,38.25593,R,ugm-3,10.82667,R,ugm-3,,,
10-01-2013,23:00,1.88031,R,ugm-3,26.68081,R,ugm-3,29.56400,R,ugm-3,24.74668,R,ugm-3,,,
10-01-2013,24:00,1.39136,R,ugm-3,22.11233,R,ugm-3,24.24591,R,ugm-3,26.39313,R,ugm-3,,,
11-01-2013,01:00,1.00366,R,ugm-3,19.52216,R,ugm-3,21.06122,R,ugm-3,24.28102,R,ugm-3,,,
11-01-2013,02:00,1.25437,R,ugm-3,17.99344,R,ugm-3,19.91658,R,ugm-3,23.08360,R,ugm-3,,,
11-01-2013,03:00,1.05397,R,ugm-3,15.03847,R,ugm-3,16.65439,R,ugm-3,23.94840,R,ugm-3,,,
11-01-2013,04:00,1.09139,R,ugm-3,14.75159,R,ugm-3,16.42546,R,ugm-3,21.15442,R,ugm-3,,,
11-01-2013,05:00,1.24231,R,ugm-3,16.86682,R,ugm-3,18.77195,R,ugm-3,17.96130,R,ugm-3,,,
11-01-2013,06:00,1.84445,R,ugm-3,22.12476,R,ugm-3,24.95296,R,ugm-3,12.87227,R,ugm-3,,,
11-01-2013,07:00,2.97325,R,ugm-3,21.82497,R,ugm-3,26.38375,R,ugm-3,14.36904,R,ugm-3,,,
11-01-2013,08:00,6.28546,R,ugm-3,28.87875,R,ugm-3,38.51684,R,ugm-3,7.23441,R,ugm-3,,,
11-01-2013,09:00,9.67281,R,ugm-3,31.98417,R,ugm-3,46.81542,R,ugm-3,9.62925,R,ugm-3,,,
11-01-2013,10:00,8.28020,R,ugm-3,27.08052,R,ugm-3,39.77594,R,ugm-3,16.76388,R,ugm-3,,,
11-01-2013,11:00,6.02165,R,ugm-3,18.12428,R,ugm-3,27.35669,R,ugm-3,26.64260,R,ugm-3,,,
11-01-2013,12:00,8.28051,R,ugm-3,13.51564,R,ugm-3,26.21206,R,ugm-3,35.22411,R,ugm-3,,,
11-01-2013,13:00,6.39865,R,ugm-3,12.56656,R,ugm-3,22.37754,R,ugm-3,44.15486,R,ugm-3,,,
11-01-2013,14:00,4.77997,R,ugm-3,12.58760,R,ugm-3,19.91658,R,ugm-3,42.10927,R,ugm-3,,,
11-01-2013,15:00,3.50024,R,ugm-3,13.57684,R,ugm-3,18.94365,R,ugm-3,47.94669,R,ugm-3,,,
11-01-2013,16:00,3.38736,R,ugm-3,18.95766,R,ugm-3,24.15172,R,ugm-3,42.35873,R,ugm-3,,,
11-01-2013,17:00,47.15979,R,ugm-3,54.34273,R,ugm-3,126.65345,R,ugm-3,4.98925,R,ugm-3,,,
11-01-2013,18:00,129.05844,R,ugm-3,73.96355,R,ugm-3,271.84992,R,ugm-3,2.39484,R,ugm-3,,,
11-01-2013,19:00,163.79731,R,ugm-3,77.24253,R,ugm-3,328.39471,R,ugm-3,3.34280,R,ugm-3,,,
11-01-2013,20:00,47.15948,R,ugm-3,56.46035,R,ugm-3,128.77102,R,ugm-3,3.19312,R,ugm-3,,,
11-01-2013,21:00,42.41724,R,ugm-3,51.88517,R,ugm-3,116.92408,R,ugm-3,2.49463,R,ugm-3,,,
11-01-2013,22:00,23.86210,R,ugm-3,43.13596,R,ugm-3,79.72357,R,ugm-3,7.33420,R,ugm-3,,,
11-01-2013,23:00,2.33339,R,ugm-3,30.70423,R,ugm-3,34.28171,R,ugm-3,17.76173,R,ugm-3,,,
11-01-2013,24:00,1.35519,R,ugm-3,25.73651,R,ugm-3,27.81454,R,ugm-3,22.00259,R,ugm-3,,,
12-01-2013,01:00,1.10386,R,ugm-3,22.34438,R,ugm-3,24.03726,R,ugm-3,22.81750,R,ugm-3,,,
12-01-2013,02:00,1.15458,R,ugm-3,16.01018,R,ugm-3,17.77994,R,ugm-3,33.86038,R,ugm-3,,,
12-01-2013,03:00,0.86563,R,ugm-3,10.46233,R,ugm-3,11.78970,R,ugm-3,47.49766,R,ugm-3,,,
12-01-2013,04:00,0.75337,R,ugm-3,6.85727,R,ugm-3,8.01242,R,ugm-3,52.08777,R,ugm-3,,,
12-01-2013,05:00,0.94109,R,ugm-3,12.12047,R,ugm-3,13.56388,R,ugm-3,39.96389,R,ugm-3,,,
12-01-2013,06:00,0.90336,R,ugm-3,10.06166,R,ugm-3,11.44631,R,ugm-3,45.70153,R,ugm-3,,,
12-01-2013,07:00,0.86594,R,ugm-3,11.95026,R,ugm-3,13.27772,R,ugm-3,47.19831,R,ugm-3,,,
12-01-2013,08:00,1.24200,R,ugm-3,12.28877,R,ugm-3,14.19343,R,ugm-3,41.95959,R,ugm-3,,,
12-01-2013,09:00,1.46776,R,ugm-3,15.77765,R,ugm-3,18.02794,R,ugm-3,35.42368,R,ugm-3,,,